Location: General Nathan Twining Observatory
(34.5931°N, 106.8201°W)
Time: 13:36:34
(UTC-06:00)

Daily predictions for brighter satellites

Satellite Brightness Start Highest point End
(mag) Time Altitude Azimuth Time Altitude Azimuth Time Altitude Azimuth
Cosmos 2360 Rocket 4.2 20:36:26 10° NNE 20:39:14 14° NE 20:42:02 10° E
Cosmos 1980 Rocket 2.6 20:36:52 10° NNW 20:42:29 70° WSW 20:48:08 10° S
Cosmos 1814 Rocket 4.4 20:40:33 10° S 20:45:28 44° ESE 20:50:29 10° NNE
SJ-6B 3.1 20:42:12 10° S 20:45:52 67° WSW 20:49:36 10° NNW
Cosmos 1898 Rocket 4.1 20:41:24 10° N 20:46:27 43° ENE 20:51:28 10° SE
ATLAS 3B R/B 4.5 20:44:26 10° WSW 20:51:04 38° NW 20:57:29 10° NNE
Atlas Centaur 2 2.3 20:48:27 10° W 20:52:20 32° SSW 20:55:30 11° SE
Cosmos 1975 3.1 20:48:37 10° N 20:52:32 50° E 20:56:25 10° SSE
Resurs 1-3 3.8 20:49:24 10° SSE 20:53:39 55° ENE 20:57:57 10° N
Envisat 3.7 20:49:21 10° S 20:54:19 56° W 20:59:19 10° NNW
Cosmos 1743 3.2 20:53:38 10° N 20:57:16 41° E 21:00:52 10° SSE
GPS 2-05 Rocket1 3.0 20:55:33 10° SW 20:58:43 45° SSE 21:01:55 10° E
Timation 2 Rocket 4.2 20:53:59 10° SSW 20:59:55 73° WNW 21:05:59 10° NNE
Cosmos 1378 Rocket 4.2 20:56:17 10° SSW 21:00:31 59° W 21:04:47 10° N
H-2A R/B 3.7 20:57:55 10° ESE 21:00:55 16° ENE 21:03:58 10° NNE
BREEZE-M DEB (TANK) 2.9 21:03:37 10° NW 21:05:50 44° NE 21:08:59 14° ESE
SJ-11-01 4.3 21:01:35 10° SSE 21:06:15 69° ENE 21:10:59 10° N
Cosmos 2346 Rocket 4.5 21:00:26 10° N 21:06:39 76° E 21:12:46 10° S
Cosmos 1975 Rocket 3.0 21:02:49 10° S 21:07:07 71° E 21:11:25 10° NNE
Okean 1 Rocket 3.7 21:09:15 10° NNW 21:13:31 57° W 21:17:44 10° S
ATLAS CENTAUR R/B 4.0 21:14:16 10° WNW 21:17:36 19° WSW 21:21:00 10° SSW
Cosmos 1242 Rocket 2.4 21:14:27 10° N 21:18:05 77° E 21:20:59 15° SSE
USA 186 3.4 21:15:34 10° SSW 21:18:33 34° W 21:21:40 10° NNW
Cosmos 1833 4.2 21:13:32 10° S 21:19:10 60° ESE 21:24:46 10° NNE
YAOGAN 6 4.0 21:16:48 10° SSW 21:20:15 37° W 21:23:42 10° NNW
OAO 1 Rocket 4.4 21:16:20 10° W 21:21:41 87° N 21:26:15 14° E
ARGOS 3.9 21:19:05 17° SE 21:22:35 36° ENE 21:27:29 10° N
Meteor 2-4 Rocket 3.7 21:17:56 10° S 21:23:16 63° E 21:28:46 10° NNE
Cosmos 540 Rocket 3.9 21:18:42 10° S 21:23:31 41° ESE 21:28:21 10° NNE
Shenzhou-11 Module 3.5 21:21:35 10° NW 21:24:16 30° NNE 21:26:08 16° ENE
Cosmos 1544 Rocket 4.2 21:22:36 10° N 21:26:46 39° E 21:29:02 23° SE
Meteor 1-12 Rocket 4.4 21:20:45 10° N 21:26:46 84° W 21:32:47 10° S
Cosmos 2150 Rocket 4.3 21:25:05 10° N 21:30:20 53° ENE 21:33:31 22° SE
NOAA 11 4.2 21:25:25 10° SSE 21:30:48 84° WSW 21:36:17 10° NNW
Lacrosse 5 rocket 3.1 21:27:24 10° NNW 21:30:51 23° NE 21:33:08 15° E
Tiangong 2 3.7 21:29:33 10° NW 21:31:49 18° N 21:34:04 10° NE
Spot 2 Rocket 3.5 21:27:59 12° S 21:32:42 80° WSW 21:37:45 10° NNW
SJ 16-02 2.9 21:30:55 10° NNE 21:34:17 21° ENE 21:35:37 18° E
Cosmos 2322 Rocket 2.2 21:29:52 10° NNW 21:35:30 83° WSW 21:39:39 19° SSE
Cosmos 1763 Rocket 4.4 21:32:22 10° SSW 21:37:31 52° WNW 21:42:40 10° N
Cosmos 1536 Rocket 3.9 21:38:24 25° SSE 21:40:35 46° E 21:44:52 10° NNE
Cosmos 1937 Rocket 3.5 21:35:50 10° NNW 21:40:59 81° WSW 21:44:32 20° S
Cosmos 292 Rocket 4.1 21:39:04 10° SSW 21:43:48 68° WNW 21:48:32 10° NNE
Cosmos 841 Rocket 3.9 21:39:50 10° SSW 21:45:01 65° WNW 21:50:16 10° N
SL-16 R/B 2.6 21:40:50 10° NNW 21:46:26 62° WSW 21:50:36 18° S
MetOp-B 4.4 21:44:16 27° SE 21:46:57 51° ENE 21:52:08 10° N
Resurs 01 Rocket 3.2 21:46:43 10° SSW 21:50:39 32° W 21:54:36 10° NW
Cosmos 1340 Rocket 3.0 21:47:06 12° SSW 21:50:45 72° W 21:54:49 10° N
Cosmos 2298 Rocket 4.0 21:46:42 10° NNW 21:52:01 83° WSW 21:55:03 26° S
Chunghua 1 4.4 21:56:14 10° W 21:59:58 89° S 22:00:57 47° E
DELTA 2 R/B (1) 3.5 21:57:04 10° SW 22:02:32 62° SSE 22:07:30 13° ENE
Cosmos 2219 3.8 22:02:07 34° ESE 22:03:00 36° ESE 22:08:11 10° NE
USA 234 3.8 21:57:06 10° NE 22:03:33 62° NW 22:09:59 10° WSW
SL-08 RB Rocket 3.6 22:02:35 42° SE 22:04:02 70° ENE 22:08:35 10° N
CZ-4C R/B 4.0 21:57:37 10° NNW 22:04:08 33° NE 22:08:19 21° E
USA 32 4.1 21:59:23 10° N 22:04:37 78° W 22:07:40 25° S
CSL-04 DEB 4.5 22:04:05 49° SE 22:04:58 63° ENE 22:09:02 10° N
ERS-1 Rocket 3.0 22:07:40 42° SE 22:09:12 63° ENE 22:14:10 10° N
Cosmos 2237 4.4 22:03:46 10° NNW 22:09:24 56° ENE 22:11:15 39° ESE
Nadezhda 4 Rocket 4.3 22:04:11 10° N 22:10:17 49° E 22:12:19 37° SE
Cosmos 1025 Rocket 3.1 22:17:05 53° E 22:17:07 53° E 22:21:23 10° NNE
Cosmos 2360 Rocket 2.2 22:18:12 10° NNW 22:23:50 77° WSW 22:25:42 44° S
Aureole 2 Rocket 4.1 22:22:45 10° NW 22:24:40 22° W 22:24:40 22° W
CENTAUR R/B 4.3 22:20:16 10° WSW 22:25:32 32° NW 22:31:30 10° NNE
Cosmos 2219 Rocket 3.2 22:21:36 10° N 22:26:27 30° ENE 22:27:26 28° E
Meteor 1-15 Rocket 4.1 22:22:51 10° N 22:28:34 87° W 22:30:19 47° S
Okean 2 3.4 22:29:32 71° SW 22:29:55 80° W 22:34:06 10° N
Cosmos 2333 4.5 22:25:53 10° N 22:31:26 51° ENE 22:32:26 46° E
CZ-2C R/B 4.4 22:32:01 26° ENE 22:32:32 26° ENE 22:37:05 10° NNE
Skynet4D Del rocket 4.5 22:29:53 10° WSW 22:34:42 36° SSW 22:34:42 36° SSW
GPS 2-05 Rocket1 4.4 22:32:35 10° W 22:34:23 29° W 22:34:23 29° W
SPOT 1/Viking Rocket 3.5 22:35:50 61° ESE 22:36:29 69° ENE 22:41:37 10° N
Helios 1A 2.9 22:37:36 76° NNE 22:37:36 76° NNE 22:41:33 10° N
USA 245 3.5 22:38:07 62° W 22:38:07 62° W 22:42:11 10° NNW
Cosmos 783 Rocket 4.4 22:37:10 62° S 22:37:59 78° ESE 22:43:17 10° NNE
H-2A R/B 2.6 22:38:23 36° SW 22:39:52 48° W 22:44:44 10° NNW
Landsat 7 3.9 22:41:05 60° ENE 22:41:05 60° ENE 22:45:46 10° N
Cosmos 1125 Rocket 3.3 22:36:36 10° NNW 22:41:52 86° ENE 22:42:26 72° SSE
Cosmos 1356 Rocket 3.7 22:43:16 64° W 22:43:30 66° W 22:47:46 10° N
COSMOS 2455 3.5 22:57:07 39° ENE 22:57:07 39° ENE 23:01:28 10° NE
Cosmos 2333 Rocket 2.6 22:51:58 10° N 22:57:30 48° ENE 22:57:46 48° ENE
Terra 2.2 23:00:26 56° NE 23:00:26 56° NE 23:04:34 10° N
COSMOS 2428 2.5 22:54:42 10° NNW 23:00:24 85° ENE 23:00:42 80° SE
SL-19 R/B 4.4 23:00:22 66° SE 23:01:14 79° ENE 23:07:45 10° NNW
Helios 1B rocket 3.1 22:57:15 10° N 23:00:55 54° NW 23:00:55 54° NW
Cosmos 2195 Rocket 4.4 22:58:53 10° N 23:05:01 66° E 23:05:20 65° E
SPOT 5 3.3 23:05:36 51° W 23:05:36 51° W 23:09:45 10° NNW
Cosmos 1627 Rocket 4.4 23:01:31 10° N 23:07:38 65° E 23:07:48 65° E
Cosmos 1634 Rocket 3.9 23:07:53 66° SSW 23:08:53 86° W 23:15:15 10° N
Tiangong 2 4.0 23:06:20 10° NW 23:07:27 18° NNW 23:07:27 18° NNW
Cosmos 2297 Rocket 3.0 23:10:45 38° ENE 23:10:45 38° ENE 23:14:35 10° NNE
Lacrosse 5 rocket 3.0 23:06:17 10° NW 23:08:48 28° W 23:08:48 28° W
IGS 5A 4.4 23:12:02 47° NNW 23:12:02 47° NNW 23:15:02 10° NNW
SJ 16-02 2.9 23:09:03 10° NW 23:12:38 28° W 23:12:38 28° W
Cosmos 2227 Rocket 2.7 23:14:13 48° ENE 23:14:13 48° ENE 23:18:33 10° NNE
Nimbus 7 Rocket 4.2 23:10:26 10° NNE 23:16:22 89° W 23:16:42 81° SSW
Cosmos 2228 4.5 23:12:52 10° N 23:15:22 31° NNE 23:15:22 31° NNE
Cosmos 2237 Rocket 2.9 23:18:38 10° N 23:23:44 43° NE 23:23:44 43° NE
Cosmos 2082 4.4 23:29:57 44° NE 23:29:57 44° NE 23:34:00 10° NNE
Cosmos 2180 Rocket 4.5 23:49:05 80° NNW 23:49:05 80° NNW 23:55:02 10° N
DELTA 2 R/B (1) 4.1 23:43:34 10° W 23:48:25 55° NW 23:48:25 55° NW
Cosmos 1818 4.4 23:50:57 46° NNE 23:50:57 46° NNE 23:54:45 10° NNE
